STARLINK-5500 (55634 NORAD) Tracking and Keplerian Element Data

This shows tracking and keplerian element data for the satellite.

Feedback or suggestion? Click here.




ElementValue
Catalog55634
NameSTARLINK-5500
Epoch Orbit130
Epoch Day62.91667824
Epoch Year2023
RAAN110.2054
Inclination69.9996
Eccentricity0.0003573
Argument of Perigee281.8606
Mean Anonmoly308.5053
Mean Motion15.74869751
Decay Rate-0.01028595
L11 55634U 23021G 23062.91667824 -.01028595 00000+0 -76788-2 0 9996
L22 55634 69.9996 110.2054 0003573 281.8606 308.5053 15.74869751 1306



Live tracking and technical data element details for STARLINK-5500 (NORAD 55634). STARLINK-5500 can be tracked NOW for your location showing map with azimuth and elevation plus other details from your city location.







IsCatalogInMostPopularTable: catalog: 55634, numindb: 1
Update: records affected: 1



GetName: 55634 STARLINK-5500

Hit Count: updated at: Mon, 20 Mar 2023 12:38:46 GMT